Regional Weather Roundup
Issued by NWS

Home | Current Version | Previous Version | Text Only | Print | Product List | Glossary On
Versions: 1 2 3 4 5 6 7 8 9 10 11 12 13 14 15 16 17 18 19 20 21 22 23 24 25 26 27 28 29 30 31 32 33 34 35 36 37 38 39 40 41 42 43 44 45 46 47 48 49 50
000
ASUS44 KOUN 192210
RWROK

WEATHER ROUNDUP FOR OKLAHOMA
NATIONAL WEATHER SERVICE NORMAN OK
400 PM CST THU JAN 19 2017

NOTE: "FAIR" INDICATES FEW OR NO CLOUDS BELOW 12,000 FEET WITH NO
      SIGNIFICANT WEATHER AND/OR OBSTRUCTIONS TO VISIBILITY.

OKZ001>007-009>012-014-015-017-192300-
NORTHWEST OKLAHOMA AND THE PANHANDLE

CITY           SKY/WX    TMP DP  RH WIND       PRES   REMARKS
GAGE           SUNNY     59  37  44 VRB3      29.52R
GUYMON         SUNNY     50  37  61 E10       29.52S
ENID/WOODRING  PTSUNNY   55  46  71 S9        29.55
$$

OKZ016-021>023-033>039-044-045-192300-
SOUTHWEST OKLAHOMA

CITY           SKY/WX    TMP DP  RH WIND       PRES   REMARKS
LAWTON/REGL    SUNNY     67  41  38 S13       29.53F
LAWTON/FT SILL SUNNY     67  41  39 SW10      29.52F
FREDERICK      SUNNY     66  40  38 SW16      29.50S
CLINTON        SUNNY     60  37  42 SW9       29.53S
HOBART         SUNNY     63  38  39 W16       29.53R
ALTUS AFB      SUNNY     66  33  28 SW12      29.52R
$$

OKZ018>020-024>031-192300-
CENTRAL OKLAHOMA

CITY           SKY/WX    TMP DP  RH WIND       PRES   REMARKS
OKLAHOMA CITY  PTSUNNY   58  46  64 SE14      29.56R
OKC/WILEY POST PTSUNNY   60  46  59 S15       29.56R
OKC/TINKER AFB CLOUDY    57  45  64 SE8       29.56R
STILLWATER     MOSUNNY   57  45  64 SE14G24   29.56S
GUTHRIE        PTSUNNY   60  44  55 S13       29.56R
$$

OKZ008-013-054>072-192300-
NORTHEAST OKLAHOMA

CITY           SKY/WX    TMP DP  RH WIND       PRES   REMARKS
TULSA          CLOUDY    54  49  83 SE13      29.62S
TULSA/JONES    CLOUDY    56  47  71 SE9       29.61F
PONCA CITY     MOSUNNY   56  44  64 SE14      29.56F
BARTLESVILLE   CLOUDY    51  45  79 SE10      29.63F
MUSKOGEE       MOSUNNY   57  50  77 SE10      29.63F
$$

OKZ032-040>043-046>053-073>077-192300-
SOUTH CENTRAL/SOUTHEAST OKLAHOMA

CITY           SKY/WX    TMP DP  RH WIND       PRES   REMARKS
ARDMORE/DWNTWN SUNNY     61  46  59 S9G16     29.58F
MCALESTER      PTSUNNY   57  48  72 SE10G16   29.63F
$$





USA.gov is the U.S. government's official web portal to all federal, state and local government web resources and services.